Location: Góry Miechowskie
(50.3599°N, 20.1803°E)
Time: 07:12:00
(UTC+00:00)

A-11 Canister half - Pass Details

Date: 18 September 2024
Orbit: 1515 x 1684 km, 47.2° (Epoch: 05 October)

Event Time Altitude Azimuth Distance (km) Brightness Sun altitude
Rises 19:22:57 0° 266° (W) 4,706 12.3 -24.3°
Reaches altitude 10° 19:26:01 10° 265° (W) 3,707 11.6 -24.7°
Maximum altitude 19:35:18 74° 183° (S) 1,568 8.8 -25.8°
Enters shadow 19:38:37 45° 111° (ESE) 1,982 9.1 -26.3°
Drops below altitude 10° 19:44:30 10° 101° (E) 3,681 - -27.0°
Sets 19:47:32 0° 99° (E) 4,671 - -27.3°
